When you browse on this site, cookies collect data to enhance your experience and personalize the content and advertising you see.
Visit our Privacy Policy to learn more. By continuing to use the site, you agree to this use of cookies and data.
EN

Hourly Weather Albena

Today, 6 July, Monday

Time Temperature Precipitation Wind Pressure Humidity
00:00 +22°C° 0.3 mm 3 mps 742 mmHg 84%
01:00 +22°C° 0.3 mm 4 mps 742 mmHg 85%
02:00 +21°C° 0.3 mm 5 mps 742 mmHg 87%
03:00 +21°C° 0.2 mm 5 mps 742 mmHg 88%
04:00 +21°C° 0.2 mm 4 mps 741 mmHg 90%
05:00 +20°C° 0.2 mm 4 mps 741 mmHg 91%
06:00 +22°C° 0.2 mm 4 mps 741 mmHg 87%
07:00 +25°C° 0.2 mm 4 mps 741 mmHg 82%
08:00 +26°C° 0.2 mm 5 mps 741 mmHg 77%
09:00 +28°C° 0.3 mm 5 mps 741 mmHg 71%
10:00 +29°C° 0.3 mm 5 mps 741 mmHg 65%
11:00 +32°C° 0.3 mm 5 mps 741 mmHg 58%
12:00 +32°C° 0.6 mm 5 mps 740 mmHg 58%
13:00 +32°C° 0.6 mm 5 mps 740 mmHg 58%
14:00 +32°C° 0.6 mm 5 mps 740 mmHg 57%
15:00 +32°C° 0.2 mm 5 mps 739 mmHg 58%
16:00 +32°C° 0.2 mm 4 mps 739 mmHg 60%
17:00 +32°C° 0.2 mm 4 mps 738 mmHg 61%
18:00 +29°C° 0 mm 3 mps 738 mmHg 69%
19:00 +27°C° 0 mm 2 mps 738 mmHg 77%
20:00 +25°C° 0 mm 1 mps 738 mmHg 85%
21:00 +25°C° 0 mm 1 mps 738 mmHg 86%
22:00 +24°C° 0 mm 1 mps 738 mmHg 87%
23:00 +24°C° 0 mm 1 mps 738 mmHg 87%

Tomorrow, 7 July, Tuesday

Time Temperature Precipitation Wind Pressure Humidity
00:00 +23°C° 0 mm 2 mps 738 mmHg 88%
01:00 +23°C° 0 mm 2 mps 738 mmHg 88%
02:00 +23°C° 0 mm 2 mps 738 mmHg 89%
03:00 +21°C° 0 mm 2 mps 737 mmHg 90%
04:00 +21°C° 0 mm 2 mps 737 mmHg 91%
05:00 +21°C° 0 mm 3 mps 737 mmHg 92%
06:00 +22°C° 0 mm 3 mps 738 mmHg 86%
07:00 +25°C° 0 mm 3 mps 738 mmHg 81%
08:00 +27°C° 0 mm 3 mps 739 mmHg 75%
09:00 +28°C° 0.2 mm 3 mps 739 mmHg 68%
10:00 +30°C° 0.2 mm 3 mps 739 mmHg 62%
11:00 +31°C° 0.2 mm 3 mps 739 mmHg 56%
12:00 +31°C° 0.1 mm 3 mps 739 mmHg 54%
13:00 +33°C° 0.1 mm 3 mps 739 mmHg 53%
14:00 +33°C° 0.1 mm 4 mps 739 mmHg 52%
15:00 +32°C° 0.2 mm 4 mps 739 mmHg 56%
16:00 +29°C° 0.2 mm 5 mps 739 mmHg 61%
17:00 +28°C° 0.2 mm 6 mps 739 mmHg 65%
18:00 +26°C° 0.1 mm 7 mps 740 mmHg 71%
19:00 +23°C° 0.1 mm 7 mps 741 mmHg 76%
20:00 +21°C° 0.1 mm 8 mps 742 mmHg 82%
21:00 +20°C° 0 mm 8 mps 742 mmHg 83%
22:00 +17°C° 0 mm 8 mps 743 mmHg 83%
23:00 +16°C° 0 mm 8 mps 743 mmHg 84%

Day after tomorrow, 8 July, Wednesday

Time Temperature Precipitation Wind Pressure Humidity
00:00 +16°C° 0 mm 8 mps 744 mmHg 82%
01:00 +15°C° 0 mm 8 mps 744 mmHg 81%
02:00 +15°C° 0 mm 8 mps 744 mmHg 80%
03:00 +15°C° 0 mm 8 mps 745 mmHg 77%
04:00 +15°C° 0 mm 8 mps 745 mmHg 74%
05:00 +15°C° 0 mm 8 mps 746 mmHg 71%
06:00 +16°C° 0 mm 8 mps 746 mmHg 68%
07:00 +16°C° 0 mm 8 mps 746 mmHg 66%
08:00 +17°C° 0 mm 8 mps 747 mmHg 63%
09:00 +20°C° 0 mm 8 mps 747 mmHg 59%
10:00 +21°C° 0 mm 8 mps 747 mmHg 55%
11:00 +22°C° 0 mm 7 mps 747 mmHg 51%
12:00 +23°C° 0 mm 7 mps 747 mmHg 50%
13:00 +24°C° 0 mm 6 mps 747 mmHg 49%
14:00 +24°C° 0 mm 6 mps 747 mmHg 47%
15:00 +25°C° 0 mm 5 mps 747 mmHg 47%
16:00 +25°C° 0 mm 5 mps 747 mmHg 47%
17:00 +25°C° 0 mm 4 mps 747 mmHg 47%
18:00 +22°C° 0 mm 4 mps 747 mmHg 52%
19:00 +21°C° 0 mm 4 mps 747 mmHg 56%
20:00 +19°C° 0 mm 3 mps 748 mmHg 60%
21:00 +18°C° 0 mm 3 mps 748 mmHg 63%
22:00 +18°C° 0 mm 3 mps 748 mmHg 66%
23:00 +17°C° 0 mm 3 mps 748 mmHg 69%

9 July, Thursday

Time Temperature Precipitation Wind Pressure Humidity
00:00 +17°C° 0 mm 2 mps 748 mmHg 71%
01:00 +17°C° 0 mm 2 mps 748 mmHg 72%
02:00 +16°C° 0 mm 2 mps 748 mmHg 73%
03:00 +16°C° 0 mm 2 mps 748 mmHg 72%
04:00 +16°C° 0 mm 2 mps 748 mmHg 72%
05:00 +16°C° 0 mm 2 mps 748 mmHg 71%
06:00 +18°C° 0 mm 2 mps 749 mmHg 65%
07:00 +20°C° 0 mm 2 mps 749 mmHg 58%
08:00 +23°C° 0 mm 1 mps 749 mmHg 52%
09:00 +25°C° 0 mm 1 mps 749 mmHg 49%
10:00 +26°C° 0 mm 2 mps 750 mmHg 46%
11:00 +27°C° 0 mm 2 mps 750 mmHg 43%
12:00 +28°C° 0 mm 2 mps 749 mmHg 42%
13:00 +28°C° 0 mm 2 mps 749 mmHg 41%
14:00 +29°C° 0 mm 3 mps 749 mmHg 41%
15:00 +28°C° 0 mm 3 mps 749 mmHg 44%
16:00 +27°C° 0 mm 3 mps 749 mmHg 48%
17:00 +27°C° 0 mm 3 mps 749 mmHg 52%
18:00 +25°C° 0 mm 3 mps 749 mmHg 58%
19:00 +22°C° 0 mm 3 mps 749 mmHg 65%
20:00 +21°C° 0 mm 3 mps 749 mmHg 72%
21:00 +20°C° 0 mm 2 mps 749 mmHg 73%
22:00 +19°C° 0 mm 2 mps 749 mmHg 74%
23:00 +19°C° 0 mm 2 mps 749 mmHg 75%

10 July, Friday

Time Temperature Precipitation Wind Pressure Humidity
00:00 +19°C° 0 mm 2 mps 749 mmHg 76%
01:00 +18°C° 0 mm 2 mps 749 mmHg 77%
02:00 +18°C° 0 mm 2 mps 749 mmHg 78%
03:00 +18°C° 0 mm 2 mps 749 mmHg 78%
04:00 +18°C° 0 mm 3 mps 749 mmHg 78%
05:00 +18°C° 0 mm 3 mps 749 mmHg 78%
06:00 +20°C° 0 mm 4 mps 749 mmHg 71%
07:00 +22°C° 0 mm 5 mps 749 mmHg 65%
08:00 +25°C° 0 mm 5 mps 749 mmHg 59%
09:00 +26°C° 0 mm 6 mps 749 mmHg 57%
10:00 +27°C° 0 mm 6 mps 749 mmHg 56%
11:00 +28°C° 0 mm 6 mps 749 mmHg 54%
12:00 +28°C° 0 mm 6 mps 749 mmHg 54%
13:00 +28°C° 0 mm 6 mps 749 mmHg 53%
14:00 +28°C° 0 mm 7 mps 749 mmHg 53%
15:00 +28°C° 0 mm 6 mps 749 mmHg 54%
16:00 +27°C° 0 mm 6 mps 748 mmHg 56%
17:00 +27°C° 0 mm 6 mps 748 mmHg 57%
18:00 +24°C° 0 mm 6 mps 748 mmHg 64%
19:00 +23°C° 0 mm 5 mps 748 mmHg 71%
20:00 +21°C° 0 mm 4 mps 748 mmHg 77%
21:00 +21°C° 0 mm 4 mps 748 mmHg 80%
22:00 +20°C° 0 mm 4 mps 748 mmHg 82%
23:00 +20°C° 0 mm 4 mps 748 mmHg 84%

11 July, Saturday

Time Temperature Precipitation Wind Pressure Humidity
00:00 +19°C° 0 mm 3 mps 748 mmHg 85%
01:00 +19°C° 0 mm 3 mps 748 mmHg 86%
02:00 +19°C° 0 mm 3 mps 747 mmHg 86%
03:00 +18°C° 0 mm 3 mps 747 mmHg 87%
04:00 +18°C° 0 mm 3 mps 747 mmHg 88%
05:00 +18°C° 0 mm 3 mps 747 mmHg 89%
06:00 +20°C° 0 mm 3 mps 747 mmHg 81%
07:00 +22°C° 0 mm 3 mps 747 mmHg 72%
08:00 +25°C° 0 mm 4 mps 747 mmHg 64%
09:00 +26°C° 0 mm 4 mps 747 mmHg 59%
10:00 +27°C° 0 mm 4 mps 747 mmHg 54%
11:00 +29°C° 0 mm 5 mps 747 mmHg 48%
12:00 +29°C° 0 mm 5 mps 747 mmHg 48%
13:00 +29°C° 0 mm 5 mps 747 mmHg 47%
14:00 +29°C° 0 mm 5 mps 746 mmHg 47%
15:00 +28°C° 0 mm 5 mps 746 mmHg 51%
16:00 +27°C° 0 mm 5 mps 746 mmHg 55%
17:00 +27°C° 0 mm 5 mps 745 mmHg 60%
18:00 +25°C° 0 mm 4 mps 746 mmHg 66%
19:00 +23°C° 0 mm 4 mps 746 mmHg 72%
20:00 +21°C° 0 mm 3 mps 746 mmHg 78%
21:00 +20°C° 0 mm 3 mps 746 mmHg 81%
22:00 +20°C° 0 mm 2 mps 746 mmHg 84%
23:00 +19°C° 0 mm 2 mps 746 mmHg 87%
Show more